Location: Cutler
(25.6150°N, 80.3110°W)
Time: 05:09:29
(UTC-04:00)

Vanguard 1 - Pass Details

Date: 27 January 2018
Orbit: 650 x 3833 km, 34.2° (Epoch: 20 May)

Event Time Altitude Azimuth Distance (km) Brightness Sun altitude
Rises 02:22:25 0° 294° (WNW) 4,113 - -63.9°
Reaches altitude 10° 02:24:40 10° 296° (WNW) 3,415 - -63.4°
Maximum altitude 02:33:45 76° 23° (NNE) 2,088 - -61.4°
Exits shadow 02:40:13 41° 99° (E) 3,299 12.7 -60.0°
Drops below altitude 10° 02:51:13 10° 108° (ESE) 6,144 14.4 -57.5°
Sets 02:56:54 0° 110° (ESE) 7,525 15.0 -56.2°
